Location: Azul
(36.7830°S, 59.8500°W)
Time: 03:08:34
(UTC-03:00)

ISS - Pass Details

Date: 18 October 2020
Orbit: 417 x 420 km, 51.6° (Epoch: 28 October)

Event Time Altitude Azimuth Distance (km) Brightness Sun altitude
Rises 22:02:59 0° 252° (WSW) 2,392 1.0 -29.7°
Reaches altitude 10° 22:06:53 10° 207° (SSW) 1,530 -0.1 -30.3°
Maximum altitude 22:07:27 10° 197° (SSW) 1,513 -0.2 -30.4°
Drops below altitude 10° 22:08:01 10° 188° (S) 1,532 -0.3 -30.5°
Enters shadow 22:08:03 10° 187° (S) 1,534 -0.3 -30.5°
